Regional Weather Roundup
Issued by NWS

Home | Current Version | Previous Version | Graphics & Text | Print | Product List | Glossary On
Versions: 1 2 3 4 5 6 7 8 9 10 11 12 13 14 15 16 17 18 19 20 21 22 23 24 25 26 27 28 29 30 31 32 33 34 35 36 37 38 39 40 41 42 43 44 45 46 47 48 49 50
000
ASUS45 KBOU 280307
RWRCO

WEATHER ROUNDUP FOR COLORADO
NATIONAL WEATHER SERVICE DENVER/BOULDER CO
900 PM MDT TUE JUN 27 2017

NOTE: "FAIR" INDICATES FEW OR NO CLOUDS BELOW 12000 FEET WITH NO
SIGNIFICANT WEATHER AND/OR OBSTRUCTIONS TO VISIBILITY.

COZ001>005-013-030-031-280400-
...NORTHWEST COLORADO...

CITY           SKY/WX    TMP DP  RH WIND       PRES   REMARKS
CRAIG          FAIR      76  22  13 NW9       29.97R
HAYDEN         FAIR      70  36  28 SW5       29.99R
MEEKER         FAIR      75  35  23 NE8       29.97R
RABBIT EARS PA MOCLDY    54  32  43 W7        30.30S
STEAMBOAT SPGS FAIR      66  44  44 E3        30.01R
WALDEN         FAIR      59  32  36 N10       30.13R
$$

COZ006>008-011-280400-
...WEST CENTRAL VALLEYS...

CITY           SKY/WX    TMP DP  RH WIND       PRES   REMARKS
GRAND JUNCTION FAIR      88  19   8 S5        29.80S
MONTROSE       FAIR      80  24  12 SW3       29.91R
EAGLE          FAIR      77  28  16 W10G31    29.99R
RIFLE          FAIR      82  25  12 N3        29.88R
DELTA          FAIR      88   9   5 CALM      29.85S
NUCLA          FAIR      81  10   7 W7        29.97S
$$

COZ017>023-064>068-280400-
...SOUTHWEST COLORADO...

CITY           SKY/WX    TMP DP  RH WIND       PRES   REMARKS
DURANGO        FAIR      76  12   8 NW9       30.01S
CORTEZ         FAIR      70  30  22 SE3       29.95F
PAGOSA SPRINGS FAIR      73  16  11 NW5       30.11S
TELLURIDE      FAIR      68  13  12 CALM      30.24S
WOLF CREEK PAS FAIR      54  19  26 W12G22    30.49F
$$

COZ009-010-012-014-032>034-037-058>063-280400-
...CENTRAL COLORADO...

CITY           SKY/WX    TMP DP  RH WIND       PRES   REMARKS
ASPEN          FAIR      65  29  25 SW9       30.07S
BUENA VISTA    FAIR      71  16  12 W6        30.09S
COPPER MTN     FAIR      59  16  18 W15G23    30.43S
BERTHOUD PASS  FAIR      46  32  57 NW22      30.44R
COTTONWOOD PAS FAIR      68   5   8 W6        30.25S
GUNNISON       NOT AVBL
KREMMLING      FAIR      79  19  11 W24G33    30.07R
LEADVILLE      FAIR      58  20  22 NE3       30.24S
MONARCH PASS   FAIR      54  19  26 W23G32    30.52R
SALIDA         FAIR      73  20  13 SW6       30.13R
SUNLIGHT       FAIR      55  18  22 CALM      30.35R
WILKERSON PASS FAIR      57  14  18 W8G21     30.39R
$$

COZ069>075-280400-
...SAN LUIS VALLEY/SANGRE DE CRISTO MOUNTAINS...

CITY           SKY/WX    TMP DP  RH WIND       PRES   REMARKS
ALAMOSA        FAIR      68  28  22 W8        30.06S
DEL NORTE      FAIR      71  22  15 W9        30.11S
LA VETA PASS   FAIR      63  27  25 MISG      30.38R
SAGUACHE       FAIR      68  25  19 NW8       30.09S
$$

COZ035-036-038>040-280400-
...NORTHERN COLORADO FRONT RANGE...

CITY           SKY/WX    TMP DP  RH WIND       PRES   REMARKS
DENVER INTL AP MOCLDY    76  37  24 NE12      29.85R
DMNS CITY PARK   N/A     78  35  21 NE6G13    29.85R
AURORA         MOCLDY    78  36  22 NE12      29.88R
FRONT RANGE AP FAIR      77  36  22 N8        29.88R
ERIE MUNI ARPT FAIR      76  36  23 E5        29.82R
BOULDER MUN AP FAIR      79  30  17 CALM      29.82R
CENTENNIAL     FAIR      81  26  13 N13       29.89R
BROOMFIELD     MOCLDY    82  21  10 CALM      29.87R
FORT COLLINS   FAIR      73  42  32 N22G29    29.83R
LONGMONT       FAIR      77  37  23 CALM      29.83R
$$

COZ041-046-047-076>085-087-088-280400-
...PIKES PEAK/PALMER DIVIDE AND SOUTHERN FOOTHILLS...

CITY           SKY/WX    TMP DP  RH WIND       PRES   REMARKS
COLO. SPRINGS  FAIR      79  22  12 N9        29.91R
A. F. ACADEMY  FAIR      70  35  27 N6        29.93R
SCHRIEVER AFB  FAIR      76  34  21 NW15      29.91R
CHEYENNE MTN   FAIR      76  23  13 NW8       29.93R
ELLICOTT       FAIR     N/A N/A N/A N6        29.87R
FALCON           N/A     73  30  20 N5        29.98R
FORT CARSON    FAIR      82  24  12 NW14      29.86R
LIMON          FAIR      68  48  48 E3        29.84R
MONUMENT HILL  FAIR      63  36  36 CALM      30.00R
CANON CITY     CLEAR     81  30  16 W6        29.83R
WALSENBURG     FAIR      73  34  23 SW7       29.91R
TRINIDAD       FAIR      75  31  19 W10       29.89R
$$

COZ042>045-048>051-090-091-280400-
...NORTHEAST COLORADO...

CITY           SKY/WX    TMP DP  RH WIND       PRES   REMARKS
GREELEY ARPT   FAIR      73  42  32 N17G30    29.81R
AKRON          FAIR      76  38  25 N16       29.82R
BURLINGTON     FAIR      76  53  44 S31G46    29.74F
WRAY           FAIR      77  46  33 S12       29.73R
YUMA           FAIR      68  46  45 S7        29.74F
STERLING       FAIR      73  46  38 N15       29.77R
HOLYOKE        NOT AVBL
FORT MORGAN    FAIR      70  37  29 N16       29.82R
$$

COZ086-089-092>099-280400-
...SOUTHEAST COLORADO...

CITY           SKY/WX    TMP DP  RH WIND       PRES   REMARKS
PUEBLO         FAIR      86  36  16 W12       29.75R
LA JUNTA       FAIR      86  44  23 S20G29    29.72R
LAMAR          FAIR      85  44  23 S25G32    29.68S
SPRINGFIELD      N/A     76  46  34 SW15G23   29.81S
$$



USA.gov is the U.S. government's official web portal to all federal, state and local government web resources and services.